User: anonymous   Login
Location: Dappach
(48.9767°N, 9.6998°E)
Time: 23:27:11
(UTC+00:00)
Language:

Cosmos 676 Rocket - Orbit

View from above orbital plane
View from above orbital plane
View from above satellite
View from above satellite

Ground track
Ground track

The orbit data is extracted from the following two-line orbital elements,

1 07434U 74071B   24194.33857243  .00000377  00000-0  13448-3 0  9992
2 07434  74.0456 150.3821 0019828 146.3817 213.8599 14.37486257607269
Epoch (UTC): 12 July 2024 08:07:32
Eccentricity: 0.0019828
inclination: 74.0456°
perigee height: 752 km
apogee height: 781 km
right ascension of ascending node: 150.3821°
argument of perigee: 146.3817°
revolutions per day: 14.37486257
mean anomaly at epoch: 213.8599°
orbit number at epoch: 60726

The dashed part of the orbit path shows where the satellite is in the earth's shadow,  

DLR